Location: Boiro
(42.6475°N, 8.8834°W)
Time: 03:56:11
(UTC+01:00)

SR - Pass Details

Date: 30 November 2021
Orbit: 582 x 872 km, 66.7° (Epoch: 21 January)

Event Time Altitude Azimuth Distance (km) Brightness Sun altitude
Rises 03:55:21 0° 270° (W) 2,933 - -52.2°
Reaches altitude 10° 04:00:06 10° 315° (NW) 1,962 - -51.4°
Maximum altitude 04:00:36 10° 322° (NW) 1,946 - -51.3°
Drops below altitude 10° 04:01:06 10° 329° (NNW) 1,952 - -51.2°
Sets 04:05:42 0° 14° (NNE) 2,822 - -50.4°
